Satellite: NOAA-11 Catalog number: 19531 Epoch time: 11300.29584479 Element set: 679 Inclination: 098.7484 deg RA of node: 025.2274 deg Eccentricity: 0.0011215 Arg of perigee: 167.8466 deg Mean anomaly: 192.3004 deg Mean motion: 14.14932367 rev/day Decay rate: 2.88e-06 rev/day^2 Epoch rev: 19143 Checksum: 311
Satellite: NOAA-12 Catalog number: 21263 Epoch time: 11300.87072987 Element set: 176 Inclination: 098.7460 deg RA of node: 318.4443 deg Eccentricity: 0.0013964 Arg of perigee: 155.5228 deg Mean anomaly: 204.6617 deg Mean motion: 14.25448498 rev/day Decay rate: 2.00e-06 rev/day^2 Epoch rev: 6331 Checksum: 296
Satellite: MET-3/5 Catalog number: 21655 Epoch time: 11300.54692894 Element set: 244 Inclination: 082.5569 deg RA of node: 317.2595 deg Eccentricity: 0.0013296 Arg of perigee: 180.6498 deg Mean anomaly: 179.4624 deg Mean motion: 13.17034530 rev/day Decay rate: 5.1e-07 rev/day^2 Epoch rev: 97114 Checksum: 312
Satellite: MET-2/21 Catalog number: 22782 Epoch time: 11300.73339274 Element set: 240 Inclination: 082.5498 deg RA of node: 217.7114 deg Eccentricity: 0.0024068 Arg of perigee: 087.0161 deg Mean anomaly: 273.3779 deg Mean motion: 13.83666970 rev/day Decay rate: 8.6e-07 rev/day^2 Epoch rev: 91688 Checksum: 321
Satellite: OKEAN-4 Catalog number: 23317 Epoch time: 11300.19562537 Element set: 704 Inclination: 082.5380 deg RA of node: 249.8518 deg Eccentricity: 0.0023549 Arg of perigee: 046.7788 deg Mean anomaly: 313.5389 deg Mean motion: 14.83260117 rev/day Decay rate: 2.566e-05 rev/day^2 Epoch rev: 92011 Checksum: 306
Satellite: NOAA-14 Catalog number: 23455 Epoch time: 11300.86972550 Element set: 656 Inclination: 098.8455 deg RA of node: 022.1365 deg Eccentricity: 0.0008618 Arg of perigee: 263.2844 deg Mean anomaly: 096.7347 deg Mean motion: 14.13842177 rev/day Decay rate: 4.1e-07 rev/day^2 Epoch rev: 86782 Checksum: 319
Satellite: NOAA-15 Catalog number: 25338 Epoch time: 11300.52608191 Element set: 997 Inclination: 098.6682 deg RA of node: 284.9494 deg Eccentricity: 0.0011576 Arg of perigee: 069.6318 deg Mean anomaly: 290.6099 deg Mean motion: 14.24970523 rev/day Decay rate: 2.77e-06 rev/day^2 Epoch rev: 69957 Checksum: 355
Satellite: RESURS Catalog number: 25394 Epoch time: 11299.90233033 Element set: 926 Inclination: 098.3054 deg RA of node: 295.7122 deg Eccentricity: 0.0000907 Arg of perigee: 166.0070 deg Mean anomaly: 194.1136 deg Mean motion: 14.24247782 rev/day Decay rate: 1.05e-06 rev/day^2 Epoch rev: 69105 Checksum: 280
Satellite: FENGYUN1 Catalog number: 25730 Epoch time: 11300.84383201 Element set: 455 Inclination: 098.8279 deg RA of node: 259.2084 deg Eccentricity: 0.0023739 Arg of perigee: 308.6953 deg Mean anomaly: 051.2099 deg Mean motion: 14.08966703 rev/day Decay rate: 2.965e-05 rev/day^2 Epoch rev: 64174 Checksum: 319
Satellite: OKEAN-0 Catalog number: 25860 Epoch time: 11300.00741695 Element set: 449 Inclination: 097.9025 deg RA of node: 262.9588 deg Eccentricity: 0.0000705 Arg of perigee: 036.3613 deg Mean anomaly: 323.7644 deg Mean motion: 14.73898621 rev/day Decay rate: 1.076e-05 rev/day^2 Epoch rev: 66007 Checksum: 301
Satellite: NOAA-16 Catalog number: 26536 Epoch time: 11300.52641768 Element set: 479 Inclination: 099.1280 deg RA of node: 333.6790 deg Eccentricity: 0.0010810 Arg of perigee: 024.9635 deg Mean anomaly: 335.2082 deg Mean motion: 14.12658463 rev/day Decay rate: 1.79e-06 rev/day^2 Epoch rev: 57204 Checksum: 300
Satellite: NOAA-17 Catalog number: 27453 Epoch time: 11300.52689686 Element set: 463 Inclination: 098.3659 deg RA of node: 334.0694 deg Eccentricity: 0.0012560 Arg of perigee: 119.5027 deg Mean anomaly: 240.7412 deg Mean motion: 14.24334344 rev/day Decay rate: 3.46e-06 rev/day^2 Epoch rev: 48549 Checksum: 310
Satellite: NOAA-18 Catalog number: 28654 Epoch time: 11300.86877484 Element set: 941 Inclination: 099.0126 deg RA of node: 252.4429 deg Eccentricity: 0.0015118 Arg of perigee: 090.7318 deg Mean anomaly: 269.5612 deg Mean motion: 14.11536019 rev/day Decay rate: 3.26e-06 rev/day^2 Epoch rev: 33164 Checksum: 304
Satellite: NOAA-19 Catalog number: 33591 Epoch time: 11300.75356753 Element set: 132 Inclination: 098.8381 deg RA of node: 238.7442 deg Eccentricity: 0.0013820 Arg of perigee: 324.5377 deg Mean anomaly: 035.4889 deg Mean motion: 14.11227675 rev/day Decay rate: 4.98e-06 rev/day^2 Epoch rev: 14008 Checksum: 312
/EX SB KEPS @ AMSAT $ORB11300.M Orbital Elements 11300.MISC
HR AMSAT ORBITAL ELEMENTS FOR MANNED AND MISCELLANEOUS SATELLITES FROM WA5QGD FORT WORTH,TX October 27, 2011 Send Subscribe/unsubscribe to KEPS at http://www.amsat.org/mailman/listinfo/keps BID: ORB11300.M TO ALL RADIO AMATEURS BT
Satellite: HUBBLE Catalog number: 20580 Epoch time: 11296.20596250 Element set: 0857 Inclination: 028.4706 deg RA of node: 260.0600 deg Eccentricity: 0.0003211 Arg of perigee: 045.9963 deg Mean anomaly: 314.0958 deg Mean motion: 15.01667302 rev/day Decay rate: 3.035e-05 rev/day^2 Epoch rev: 97891 Checksum: 281
Satellite: ISS Catalog number: 25544 Epoch time: 11300.76416444 Element set: 324 Inclination: 051.6399 deg RA of node: 213.3840 deg Eccentricity: 0.0021869 Arg of perigee: 353.4471 deg Mean anomaly: 006.6750 deg Mean motion: 15.59215888 rev/day Decay rate: 4.5603e-04 rev/day^2 Epoch rev: 14567 Checksum: 301
Satellite: CO-58 Catalog number: 28895 Epoch time: 11300.18444894 Element set: 8 Inclination: 097.9449 deg RA of node: 171.3263 deg Eccentricity: 0.0018051 Arg of perigee: 163.5275 deg Mean anomaly: 196.6523 deg Mean motion: 14.60248301 rev/day Decay rate: 1.457e-05 rev/day^2 Epoch rev: 31950 Checksum: 314
Satellite: FALCON Catalog number: 30776 Epoch time: 11299.33733500 Element set: 201 Inclination: 035.4297 deg RA of node: 269.2199 deg Eccentricity: 0.0001322 Arg of perigee: 152.0089 deg Mean anomaly: 208.0698 deg Mean motion: 15.05379878 rev/day Decay rate: 8.032e-05 rev/day^2 Epoch rev: 25481 Checksum: 300
Satellite: MAST Catalog number: 31126 Epoch time: 11300.11393460 Element set: 293 Inclination: 097.8875 deg RA of node: 319.8364 deg Eccentricity: 0.0094983 Arg of perigee: 119.5430 deg Mean anomaly: 241.5283 deg Mean motion: 14.53855200 rev/day Decay rate: 1.225e-05 rev/day^2 Epoch rev: 24025 Checksum: 282
Satellite: CAPE1 Catalog number: 31130 Epoch time: 11299.60201993 Element set: 305 Inclination: 097.8926 deg RA of node: 315.9397 deg Eccentricity: 0.0102854 Arg of perigee: 132.7372 deg Mean anomaly: 228.2534 deg Mean motion: 14.52531080 rev/day Decay rate: 1.605e-05 rev/day^2 Epoch rev: 23971 Checksum: 289
Satellite: COMPASS Catalog number: 32787 Epoch time: 11300.69617527 Element set: 128 Inclination: 097.8350 deg RA of node: 001.9606 deg Eccentricity: 0.0016550 Arg of perigee: 103.5664 deg Mean anomaly: 256.7313 deg Mean motion: 14.82852645 rev/day Decay rate: 5.291e-05 rev/day^2 Epoch rev: 18919 Checksum: 307
Satellite: AAUSAT2 Catalog number: 32788 Epoch time: 11300.37241092 Element set: 119 Inclination: 097.8371 deg RA of node: 001.9130 deg Eccentricity: 0.0016493 Arg of perigee: 105.4767 deg Mean anomaly: 254.8258 deg Mean motion: 14.83067650 rev/day Decay rate: 5.430e-05 rev/day^2 Epoch rev: 18916 Checksum: 295
Satellite: DO-64 Catalog number: 32789 Epoch time: 11300.26484070 Element set: 133 Inclination: 097.8433 deg RA of node: 003.0857 deg Eccentricity: 0.0016042 Arg of perigee: 103.1239 deg Mean anomaly: 257.1849 deg Mean motion: 14.83791745 rev/day Decay rate: 8.687e-05 rev/day^2 Epoch rev: 18916 Checksum: 319
Satellite: CO-66 Catalog number: 32791 Epoch time: 11300.20268867 Element set: 122 Inclination: 097.8356 deg RA of node: 001.3691 deg Eccentricity: 0.0017024 Arg of perigee: 103.8279 deg Mean anomaly: 256.4915 deg Mean motion: 14.82466124 rev/day Decay rate: 4.252e-05 rev/day^2 Epoch rev: 18906 Checksum: 301
Satellite: RS-30 Catalog number: 32953 Epoch time: 11300.79308112 Element set: 206 Inclination: 082.4989 deg RA of node: 080.2724 deg Eccentricity: 0.0019724 Arg of perigee: 097.3987 deg Mean anomaly: 262.9339 deg Mean motion: 12.43016334 rev/day Decay rate: 1.0e-07 rev/day^2 Epoch rev: 15556 Checksum: 293
Satellite: TACSAT-3 Catalog number: 35001 Epoch time: 11300.78670027 Element set: 738 Inclination: 040.4509 deg RA of node: 084.5399 deg Eccentricity: 0.0013526 Arg of perigee: 113.6776 deg Mean anomaly: 246.5462 deg Mean motion: 15.56140989 rev/day Decay rate: 6.8615e-04 rev/day^2 Epoch rev: 13768 Checksum: 316
Satellite: PHARMSAT Catalog number: 35002 Epoch time: 11299.80268851 Element set: 686 Inclination: 040.4678 deg RA of node: 089.6063 deg Eccentricity: 0.0017050 Arg of perigee: 121.5531 deg Mean anomaly: 238.6959 deg Mean motion: 15.54047739 rev/day Decay rate: 5.6248e-04 rev/day^2 Epoch rev: 13754 Checksum: 321
Satellite: HAWKSAT1 Catalog number: 35003 Epoch time: 11278.76493853 Element set: 0821 Inclination: 040.4370 deg RA of node: 161.0594 deg Eccentricity: 0.0006849 Arg of perigee: 275.9761 deg Mean anomaly: 084.3784 deg Mean motion: 16.29831142 rev/day Decay rate: 5.638703e-02 rev/day^2 Epoch rev: 13489 Checksum: 328
Satellite: CP6 Catalog number: 35004 Epoch time: 11247.64656856 Element set: 784 Inclination: 040.4403 deg RA of node: 342.9642 deg Eccentricity: 0.0002956 Arg of perigee: 038.0069 deg Mean anomaly: 322.2231 deg Mean motion: 16.41039951 rev/day Decay rate: 1.6152067e-01 rev/day^2 Epoch rev: 13013 Checksum: 285
Satellite: METEOR-M Catalog number: 35865 Epoch time: 11300.80098675 Element set: 848 Inclination: 098.6887 deg RA of node: 354.1003 deg Eccentricity: 0.0002833 Arg of perigee: 025.2804 deg Mean anomaly: 334.8482 deg Mean motion: 14.21842687 rev/day Decay rate: -2.32e-06 rev/day^2 Epoch rev: 10943 Checksum: 304
